[[{"header":{"parameterUnit":"m.s-1","parameterCategory":1,"la1":30.2991,"la2":30.254,"lo1":-89.0895,"lo2":-89.0444,"dy":0.0017,"dx":0.0017,"nx":28,"ny":28,"refTime":"2025-12-21T03:00:00:Z","depth":0,"parameterNumber":2,"parameterNumberName":"U-component_of_WINDS"},"data":[0,0,0,0,0,0,0,0,0,0,0,0,0,0,0,0,0,0,0,0,0,0,0,0,0,0,0,0,0,0,0,0,0,0,0,0,0,0,0,0,0,0,0,0,0,0,0,0,0,0,0,0,0,0,0,0,0,0,-2.2131,-2.2131,0,-2.212,-2.212,-2.212,-2.2076,-2.2075,-2.2074,-2.2073,-2.2062,-2.2062,-2.2063,0,0,0,0,0,0,0,0,0,0,0,0,0,-2.2115,-2.2116,-2.2131,-2.2131,-2.2131,-2.212,-2.212,-2.212,-2.2076,-2.2075,-2.2074,-2.2072,-2.2061,-2.2062,-2.2063,0,0,0,0,0,0,0,0,0,0,0,0,0,-2.2115,-2.2116,-2.2131,-2.2108,-2.2106,-2.212,-2.212,-2.212,-2.2076,-2.2075,-2.2073,-2.2072,-2.2061,-2.2062,-2.2063,-2.2099,0,0,-2.2066,-2.2066,0,0,0,0,0,0,0,0,-2.2115,-2.2115,-2.2112,-2.211,-2.2107,-2.2098,-2.211,-2.2113,-2.2077,-2.2088,-2.2073,-2.2071,-2.2075,-2.2075,-2.2076,-2.2099,-2.2098,-2.2066,-2.2067,-2.2067,-2.2067,0,0,0,0,0,0,0,-2.2115,-2.2116,-2.2127,-2.2112,-2.2109,-2.2098,-2.2096,-2.211,-2.209,-2.2086,-2.2083,-2.2082,-2.2073,-2.2075,-2.2075,-2.2098,-2.2066,-2.2067,-2.2067,-2.2068,-2.2148,-2.215,0,0,0,0,0,0,-2.2118,-2.2116,-2.2127,-2.2127,-2.2107,-2.2099,-2.2098,-2.2102,-2.209,-2.2086,-2.2084,-2.208,-2.2074,-2.2074,-2.2075,-2.2114,-2.2067,-2.2068,-2.2068,-2.2147,-2.2149,-2.215,0,0,0,0,0,0,-2.2118,-2.212,-2.2128,-2.212,-2.2121,-2.2101,-2.2107,-2.2103,-2.2104,-2.2088,-2.2084,-2.2089,-2.2073,-2.2073,-2.2093,-2.2113,-2.2068,-2.2069,-2.2145,-2.2147,-2.215,-2.2196,0,0,0,0,0,0,-2.2118,-2.212,-2.2133,-2.2121,-2.2121,-2.2146,-2.2108,-2.2104,-2.2106,-2.2102,-2.2092,-2.2088,-2.2072,-2.2092,-2.2094,-2.2114,-2.207,-2.2143,-2.2146,-2.2149,-2.2192,-2.2199,-2.2205,0,0,0,0,0,-2.2117,-2.2147,-2.2134,-2.2136,-2.2138,-2.2148,-2.2148,-2.2128,-2.2108,-2.2121,-2.211,-2.2089,-2.2112,-2.2094,-2.2096,-2.2117,-2.2142,-2.2145,-2.2149,-2.2189,-2.2198,-2.2205,0,0,0,0,0,0,-2.2163,-2.2145,-2.2131,-2.2158,-2.2154,-2.214,-2.2156,-2.2138,-2.214,-2.2136,-2.2112,-2.211,-2.2133,-2.2127,-2.2108,-2.2151,-2.2123,-2.2127,-2.2153,-2.2161,-2.2167,-2.2167,-2.2071,0,0,0,0,0,-2.2176,-2.2186,-2.217,-2.2195,-2.2194,-2.2176,-2.2179,-2.2164,-2.216,-2.2159,-2.2149,-2.2146,-2.2152,-2.2157,-2.2162,-2.2192,-2.2188,-2.2207,-2.2214,-2.2219,-2.2222,-2.2236,-2.2244,-2.2162,-2.2162,-2.2162,0,0,-2.2203,-2.2195,-2.2203,-2.2204,-2.22,-2.221,-2.2175,-2.2187,-2.2194,-2.2161,-2.2178,-2.2171,-2.2166,-2.219,-2.2201,-2.2186,-2.2244,-2.2224,-2.2228,-2.2228,-2.224,-2.2248,-2.2255,-2.2164,-2.2164,-2.2164,0,0,-2.2257,-2.2253,-2.2272,-2.2269,-2.2263,-2.225,-2.2255,-2.2244,-2.2237,-2.2255,-2.2229,-2.2237,-2.2249,-2.2246,-2.2246,-2.2299,-2.2278,-2.2301,-2.2335,-2.2348,-2.2355,-2.236,-2.2377,-2.2384,-2.2305,-2.2305,-2.2305,0,-2.2292,-2.2306,-2.2285,-2.2298,-2.2299,-2.2269,-2.2288,-2.2286,-2.2282,-2.2283,-2.2268,-2.2281,-2.2275,-2.2298,-2.2311,-2.2312,-2.2316,-2.2301,-2.2356,-2.2361,-2.2366,-2.2382,-2.2388,-2.2308,-2.2307,-2.2307,-2.2307,0,-2.2347,-2.2358,-2.2374,-2.237,-2.2373,-2.239,-2.2371,-2.2377,-2.2362,-2.2351,-2.2368,-2.2361,-2.2363,-2.2368,-2.2354,-2.2388,-2.2379,-2.236,-2.2331,-2.2377,-2.2391,-2.2397,-2.2311,-2.2311,-2.231,-2.2309,0,0,-2.2428,-2.2413,-2.2419,-2.2416,-2.2407,-2.2415,-2.243,-2.2431,-2.2436,-2.2435,-2.2446,-2.2456,-2.2438,-2.2438,-2.2424,-2.2436,-2.2476,-2.2415,-2.2415,-2.2425,-2.2511,-2.2524,-2.2531,-2.2463,-2.2465,-2.2465,-2.2511,0,-2.2478,-2.2502,-2.2483,-2.251,-2.2519,-2.2491,-2.2504,-2.2499,-2.249,-2.2495,-2.2485,-2.2492,-2.2469,-2.2468,-2.248,-2.2469,-2.2493,-2.2466,-2.2472,-2.2472,-2.2472,-2.2539,-2.2552,-2.2596,-2.2517,-2.2518,-2.2518,0,-2.2539,-2.2539,-2.2567,-2.2555,-2.2558,-2.257,-2.2569,-2.2575,-2.257,-2.2562,-2.2562,-2.2544,-2.2557,-2.2531,-2.2548,-2.253,-2.2532,-2.2527,-2.2528,-2.2526,-2.2496,-2.2536,-2.2609,-2.2615,-2.2527,-2.2527,-2.2526,0,-2.2592,-2.26,-2.2617,-2.2616,-2.2603,-2.2612,-2.2607,-2.26,-2.2602,-2.2602,-2.2603,-2.2605,-2.2606,-2.2607,-2.259,-2.2573,-2.2609,-2.2582,-2.2602,-2.2602,-2.2608,-2.2608,-2.268,-2.2614,-2.2614,-2.2614,-2.2614,0,-2.2648,-2.2665,-2.264,-2.2651,-2.2669,-2.2648,-2.2667,-2.266,-2.2654,-2.2662,-2.2639,-2.2647,-2.2624,-2.263,-2.2617,-2.2632,-2.2633,-2.2626,-2.2622,-2.2627,-2.2628,-2.2626,-2.2622,-2.2615,-2.2615,-2.2615,-2.2614,0,-2.271,-2.2694,-2.271,-2.2697,-2.2694,-2.2708,-2.2697,-2.2705,-2.2695,-2.2705,-2.2706,-2.2689,-2.2694,-2.2678,-2.2681,-2.2672,-2.2694,-2.2686,-2.2695,-2.2692,-2.2712,-2.2709,-2.2784,-2.2792,-2.2723,-2.2723,-2.2724,0,-2.2745,-2.2758,-2.2746,-2.2749,-2.2745,-2.2752,-2.2753,-2.2733,-2.2736,-2.273,-2.274,-2.2743,-2.2744,-2.2754,-2.2742,-2.2744,-2.2734,-2.276,-2.2734,-2.2738,-2.2732,-2.273,-2.2731,-2.2765,-2.2766,-2.2767,-2.2767,0,-2.2809,-2.28,-2.2804,-2.2804,-2.2806,-2.2806,-2.2803,-2.2808,-2.2786,-2.279,-2.2795,-2.2796,-2.2799,-2.2802,-2.2801,-2.2796,-2.2778,-2.2776,-2.278,-2.2784,-2.2788,-2.2783,-2.2707,-2.2774,-2.2773,-2.2772,-2.2772,-2.2772,-2.2857,-2.2866,-2.2859,-2.2863,-2.2859,-2.2857,-2.2864,-2.2854,-2.2858,-2.2858,-2.2846,-2.2853,-2.2847,-2.2844,-2.2841,-2.2845,-2.2833,-2.284,-2.2841,-2.2843,-2.2845,-2.2789,-2.2846,-2.2845,-2.2845,-2.2845,-2.2845,0,-2.2918,-2.2911,-2.2915,-2.2912,-2.2915,-2.2898,-2.2895,-2.2898,-2.2904,-2.29,-2.2902,-2.2907,-2.291,-2.2898,-2.2899,-2.2905,-2.2897,-2.2906,-2.2904,-2.2903,-2.2857,-2.2852,-2.2913,-2.2913,-2.2913,-2.2913,-2.2913,-2.2913,-2.2949,-2.2963,-2.2954,-2.2966,-2.2959,-2.2965,-2.2965,-2.2963,-2.2959,-2.2965,-2.2967,-2.296,-2.2952,-2.2952,-2.2954,-2.2951,-2.2951,-2.2963,-2.2956,-2.2913,-2.2906,-2.29,-2.2895,-2.2964,-2.2964,-2.3001,-2.3001,-2.3002]},{"header":{"parameterUnit":"m.s-1","parameterCategory":1,"la1":30.2991,"la2":30.254,"lo1":-89.0895,"lo2":-89.0444,"dy":0.0017,"dx":0.0017,"nx":28,"ny":28,"refTime":"2025-12-21T03:00:00:Z","depth":0,"parameterNumber":3,"parameterNumberName":"V-component_of_WINDS"},"data":[0,0,0,0,0,0,0,0,0,0,0,0,0,0,0,0,0,0,0,0,0,0,0,0,0,0,0,0,0,0,0,0,0,0,0,0,0,0,0,0,0,0,0,0,0,0,0,0,0,0,0,0,0,0,0,0,0,0,1.6582,1.6582,0,1.6604,1.6604,1.6604,1.655,1.6548,1.6546,1.6545,1.6567,1.6569,1.6571,0,0,0,0,0,0,0,0,0,0,0,0,0,1.6496,1.6498,1.6582,1.6582,1.6583,1.6604,1.6604,1.6604,1.655,1.6548,1.6546,1.6544,1.6566,1.6569,1.6572,0,0,0,0,0,0,0,0,0,0,0,0,0,1.6527,1.6499,1.6582,1.6558,1.6556,1.6603,1.6604,1.6604,1.655,1.6548,1.6545,1.6543,1.6566,1.6569,1.6572,1.6644,0,0,1.6582,1.6584,0,0,0,0,0,0,0,0,1.6526,1.6531,1.6562,1.656,1.6558,1.6571,1.6582,1.6617,1.6551,1.6553,1.6545,1.6542,1.6571,1.6573,1.6583,1.6645,1.6646,1.6582,1.6584,1.6586,1.6587,0,0,0,0,0,0,0,1.6524,1.6529,1.6591,1.6562,1.656,1.6547,1.6549,1.6588,1.6576,1.6552,1.6548,1.6552,1.6569,1.658,1.6583,1.6646,1.6582,1.6585,1.6587,1.6589,1.6769,1.6772,0,0,0,0,0,0,1.6524,1.6528,1.659,1.6591,1.6535,1.6551,1.6552,1.657,1.6575,1.6574,1.6554,1.6549,1.6576,1.6579,1.6584,1.667,1.6586,1.6589,1.6591,1.6767,1.677,1.6773,0,0,0,0,0,0,1.6523,1.653,1.6589,1.6559,1.6565,1.6555,1.6575,1.6571,1.6582,1.6576,1.6574,1.6567,1.6574,1.6579,1.663,1.667,1.659,1.6593,1.6763,1.6768,1.6772,1.6841,0,0,0,0,0,0,1.6521,1.653,1.6557,1.656,1.6567,1.6634,1.6577,1.6574,1.6588,1.6582,1.6588,1.6587,1.6572,1.6625,1.6633,1.6673,1.6596,1.676,1.6765,1.677,1.6835,1.6847,1.6857,0,0,0,0,0,1.6518,1.6575,1.6558,1.6566,1.66,1.6637,1.6641,1.6623,1.6591,1.6618,1.6615,1.6587,1.6664,1.6631,1.6639,1.668,1.6757,1.6764,1.677,1.683,1.6845,1.6857,0,0,0,0,0,0,1.6577,1.6575,1.6556,1.6616,1.6627,1.6627,1.6661,1.6639,1.6659,1.6652,1.6629,1.6631,1.6686,1.6688,1.6651,1.6751,1.6705,1.6713,1.6748,1.6762,1.6773,1.6772,1.6599,0,0,0,0,0,1.6597,1.6627,1.6623,1.6677,1.6683,1.6671,1.6687,1.6672,1.6682,1.6687,1.6687,1.6698,1.6725,1.6743,1.6767,1.6835,1.6836,1.6867,1.6879,1.6888,1.6896,1.6934,1.6948,1.6794,1.6794,1.6794,0,0,1.6639,1.6642,1.6662,1.6689,1.6695,1.6728,1.6676,1.6711,1.6735,1.6692,1.674,1.6741,1.6752,1.6812,1.6838,1.6815,1.6939,1.6896,1.6903,1.6906,1.6942,1.6956,1.6969,1.6798,1.6798,1.6797,0,0,1.6732,1.6736,1.6782,1.679,1.6801,1.6793,1.6804,1.6808,1.6807,1.6855,1.6824,1.6852,1.6898,1.6908,1.6919,1.7018,1.6994,1.7026,1.7085,1.7122,1.7135,1.7145,1.7183,1.7196,1.7034,1.7034,1.7034,0,1.6783,1.683,1.6809,1.6847,1.6861,1.6823,1.6871,1.6879,1.6898,1.6908,1.6882,1.6941,1.6945,1.7008,1.7032,1.7042,1.7055,1.7026,1.7134,1.7145,1.7155,1.719,1.7204,1.7038,1.7038,1.7038,1.7037,0,1.6893,1.6926,1.6962,1.6982,1.6999,1.7042,1.7028,1.7048,1.7032,1.7027,1.7077,1.7082,1.7107,1.7121,1.7105,1.7182,1.7167,1.7138,1.7092,1.7174,1.7207,1.722,1.7044,1.7043,1.7042,1.7041,0,0,1.7025,1.7033,1.7046,1.7056,1.7065,1.7091,1.7132,1.7157,1.7176,1.719,1.7225,1.7266,1.724,1.7252,1.7237,1.727,1.735,1.7237,1.7237,1.726,1.7438,1.7461,1.7477,1.7333,1.7336,1.7338,1.7438,0,1.7119,1.719,1.7173,1.7244,1.7275,1.724,1.7277,1.7287,1.7284,1.731,1.7306,1.7337,1.7298,1.7306,1.7336,1.7334,1.7386,1.7326,1.7368,1.7369,1.7368,1.7494,1.7519,1.7613,1.745,1.7452,1.7454,0,1.7238,1.7257,1.7332,1.7338,1.735,1.7383,1.7406,1.7431,1.7443,1.7438,1.7454,1.7433,1.7475,1.7427,1.7486,1.7446,1.7461,1.7463,1.7466,1.7471,1.7418,1.7504,1.7642,1.7657,1.7473,1.7472,1.747,0,1.7329,1.7374,1.7425,1.7433,1.7441,1.7466,1.747,1.7479,1.7496,1.7515,1.7526,1.7551,1.7564,1.7584,1.7571,1.7537,1.7633,1.7583,1.7631,1.7632,1.7655,1.7654,1.7799,1.7661,1.7661,1.7661,1.7661,0,1.7437,1.7485,1.7466,1.7498,1.7551,1.753,1.7583,1.7583,1.7592,1.7624,1.7594,1.7625,1.7604,1.7633,1.7623,1.7674,1.768,1.7679,1.7676,1.7683,1.7683,1.7694,1.7688,1.7665,1.7664,1.7663,1.7662,0,1.7549,1.7538,1.7592,1.7595,1.7597,1.7636,1.7639,1.7669,1.7664,1.7704,1.7713,1.7705,1.7737,1.7726,1.776,1.7753,1.782,1.7807,1.7816,1.7814,1.7864,1.786,1.8023,1.8044,1.7891,1.7892,1.7894,0,1.762,1.7656,1.7663,1.7682,1.7689,1.772,1.7737,1.7719,1.7738,1.7755,1.7783,1.7813,1.7837,1.7891,1.7889,1.7916,1.7905,1.796,1.7909,1.7915,1.7909,1.7908,1.7912,1.7971,1.7973,1.7974,1.7975,0,1.7747,1.774,1.7766,1.7791,1.7813,1.7831,1.7847,1.7864,1.7847,1.787,1.7904,1.7922,1.7958,1.7989,1.8014,1.8019,1.7995,1.7991,1.8004,1.8013,1.8018,1.8018,1.7847,1.7988,1.7987,1.7986,1.7985,1.7985,1.7842,1.7873,1.7884,1.7914,1.7924,1.794,1.7969,1.7967,1.7995,1.8023,1.801,1.805,1.8061,1.8092,1.8101,1.8132,1.811,1.8129,1.8134,1.8139,1.8147,1.8011,1.8136,1.8135,1.8135,1.8134,1.8134,0,1.797,1.7975,1.8003,1.8027,1.8051,1.8026,1.8043,1.8065,1.81,1.8113,1.8137,1.8176,1.8206,1.8206,1.8235,1.826,1.825,1.8268,1.8267,1.8269,1.8163,1.815,1.8276,1.8276,1.8276,1.8276,1.8276,1.8276,1.804,1.8092,1.8086,1.8144,1.8148,1.8187,1.8199,1.8214,1.8224,1.827,1.8295,1.8294,1.8303,1.8332,1.8359,1.8358,1.8371,1.8394,1.839,1.829,1.8276,1.8263,1.8251,1.8396,1.8396,1.8494,1.8495,1.8495]}]]